User: anonymous   Login
Location: Lugrin
(46.4033°N, 6.6674°E)
Time: 02:33:52
(UTC+00:00)
Language:

Exosat Rocket - Orbit

View from above orbital plane
View from above orbital plane
View from above satellite
View from above satellite

Ground track
Ground track

The orbit data is extracted from the following two-line orbital elements,

1 14096U 83051B   20332.32201017 +.00000648 +00000-0 +11192-2 0  9997
2 14096 072.2973 190.5004 1095274 341.4961 014.8982 12.09732991655941
Epoch (UTC): 27 November 2020 07:43:41
Eccentricity: 0.1095274
inclination: 72.2973°
perigee height: 759 km
apogee height: 2515 km
right ascension of ascending node: 190.5004°
argument of perigee: 341.4961°
revolutions per day: 12.09732991
mean anomaly at epoch: 14.8982°
orbit number at epoch: 65594

The dashed part of the orbit path shows where the satellite is in the earth's shadow,  

DLR